Location: Albuquerque Trailhead
(34.7934°N, 106.3736°W)
Time: 00:42:39
(UTC+00:00)

SL-16 R/B - Pass Details

Date: 20 June 2021
Orbit: 985 x 1007 km, 99.5° (Epoch: 01 August)

Event Time Altitude Azimuth Distance (km) Brightness Sun altitude
Exits shadow 08:00:11 21° 107° (ESE) 2,059 4.1 -30.4°
Maximum altitude 08:02:58 30° 67° (ENE) 1,704 4.0 -30.3°
Drops below altitude 10° 08:08:12 10° 9° (N) 2,756 5.8 -30.0°
Sets 08:10:57 0° 359° (N) 3,705 6.6 -29.8°
